Weather History for Milton, FL

Change the Weather History Date:

Saturday, February 23, 2013

  Actual Average (KNSE) Record (KNSE)
Temperature  
Mean Temperature 64 °F -  
Max Temperature 71 °F 64 °F 82 °F (2011)
Min Temperature 57 °F 46 °F 32 °F (2009)
Degree Days  
Heating Degree Days 1    
Growing Degree Days 14 (Base 50)    
Moisture  
Dew Point 58 °F    
Average Humidity 91    
Maximum Humidity 94    
Minimum Humidity 86    
Precipitation  
Precipitation 0.69 in - - ()
Sea Level Pressure  
Sea Level Pressure 29.87 in    
Wind  
Wind Speed 6 mph (NNW)    
Max Wind Speed 15 mph    
Max Gust Speed 22 mph    
Visibility 9 miles    
Events Rain , Thunderstorm    
Averages and records for this station are not official NWS values.
T = Trace of Precipitation, MM = Missing Value Source: NWS Daily Summary

Daily Weather History Graph

Daily Weather History Graph

Search for Another Location

Airport:

Trip Planner

Search our weather history database for the weather conditions in past years. The results will help you decide how hot, cold, wet, or windy it might be!

Date:

Astronomy

Feb. 23, 2013 Rise Set
Actual Time 6:20 AM CST 5:42 PM CST
Civil Twilight 5:56 AM CST 6:06 PM CST
Nautical Twilight 5:28 AM CST 6:34 PM CST
Astronomical Twilight 5:00 AM CST 7:02 PM CST
Moon 3:56 PM CST 4:37 AM CST
Length of Visible Light 12h 10m
Length of Day
11h 21m
Waxing Gibbous, 95% of the Moon is Illuminated
Feb 23
Waxing Gibbous
Feb 25
Full
Mar 4
Last Quarter
Mar 11
New
Mar 19
First Quarter

Hourly Weather History & Observations

Time (CST) Temp. Dew Point Humidity Pressure Visibility Wind Dir Wind Speed Gust Speed Precip Events Conditions
12:06 AM 69.8 °F 68.0 °F 94% 29.89 in 3.0 mi SSW 6.9 mph - N/A   Overcast
12:56 AM 70.0 °F 68.0 °F 93% 29.85 in 8.0 mi SSW 5.8 mph - N/A   Overcast
1:56 AM 71.1 °F 69.1 °F 93% 29.82 in 10.0 mi SSW 3.5 mph - N/A   Overcast
2:19 AM 69.8 °F 68.0 °F 94% 29.86 in 10.0 mi SW 4.6 mph - N/A   Overcast
2:49 AM 69.8 °F 68.0 °F 94% 29.85 in 10.0 mi Variable 3.5 mph - N/A   Mostly Cloudy
2:56 AM 70.0 °F 68.0 °F 93% 29.81 in 10.0 mi WSW 3.5 mph - N/A   Overcast
3:47 AM 69.8 °F 68.0 °F 94% 29.85 in 10.0 mi SW 3.5 mph - 0.00 in   Overcast
3:56 AM 70.0 °F 68.0 °F 93% 29.81 in 10.0 mi SW 3.5 mph - 0.00 in   Overcast
4:07 AM 69.8 °F 68.0 °F 94% 29.85 in 10.0 mi SW 3.5 mph - 0.00 in Rain Light Rain
4:49 AM 62.6 °F 60.8 °F 94% 29.87 in 10.0 mi NW 15.0 mph 21.9 mph 0.00 in   Overcast
4:56 AM 62.1 °F 59.0 °F 90% 29.84 in 7.0 mi NNW 15.0 mph - 0.00 in   Overcast
5:28 AM 59.0 °F 57.2 °F 94% 29.88 in 10.0 mi North 6.9 mph - 0.00 in Rain Light Rain
5:45 AM 60.8 °F 57.2 °F 88% 29.88 in 10.0 mi NE 3.5 mph - 0.00 in   Overcast
5:56 AM 60.1 °F 57.0 °F 90% 29.84 in 10.0 mi Calm Calm - 0.00 in   Overcast
6:33 AM 60.8 °F 57.2 °F 88% 29.88 in 5.0 mi North 5.8 mph - 0.12 in Rain Light Rain
6:49 AM 60.8 °F 57.2 °F 88% 29.89 in 10.0 mi NNW 8.1 mph - 0.14 in Rain Rain
6:56 AM 60.1 °F 57.0 °F 90% 29.87 in 6.0 mi NNW 9.2 mph - 0.19 in Rain Rain
7:08 AM 59.0 °F 57.2 °F 94% 29.90 in 2.0 mi NNW 6.9 mph - 0.12 in Rain Heavy Rain
7:11 AM 59.0 °F 57.2 °F 94% 29.90 in 3.0 mi NNW 4.6 mph - 0.12 in Rain Light Rain
7:24 AM 59.0 °F 57.2 °F 94% 29.92 in 1.8 mi Calm Calm - 0.24 in Rain Heavy Rain
7:28 AM 59.0 °F 57.2 °F 94% 29.91 in 2.0 mi Calm Calm - 0.25 in Rain Heavy Rain
7:38 AM 59.0 °F 57.2 °F 94% 29.90 in 10.0 mi North 8.1 mph - 0.26 in Rain , Thunderstorm Light Rain
7:46 AM 59.0 °F 55.4 °F 88% 29.92 in 5.0 mi NNW 3.5 mph - 0.29 in Rain , Thunderstorm Rain
7:54 AM 57.2 °F 55.4 °F 94% 29.91 in 3.0 mi North 6.9 mph - 0.35 in Rain Heavy Rain
7:56 AM 57.9 °F 55.9 °F 93% 29.87 in 4.0 mi North 6.9 mph - 0.35 in Rain Heavy Rain
8:56 AM 57.0 °F 55.0 °F 93% 29.86 in 10.0 mi NNE 4.6 mph - 0.14 in Rain Light Rain
9:19 AM 57.2 °F 55.4 °F 94% 29.91 in 10.0 mi NNW 11.5 mph - 0.01 in Rain Light Rain
9:29 AM 57.2 °F 55.4 °F 94% 29.90 in 10.0 mi NNW 9.2 mph - 0.01 in   Overcast
9:56 AM 57.9 °F 55.0 °F 90% 29.86 in 10.0 mi North 8.1 mph - 0.01 in   Mostly Cloudy
10:56 AM 59.0 °F 55.9 °F 90% 29.87 in 10.0 mi ENE 4.6 mph - 0.00 in Rain Light Rain
11:56 AM 59.0 °F 55.9 °F 90% 29.86 in 10.0 mi NNE 5.8 mph - 0.00 in   Overcast
12:56 PM 59.0 °F 55.9 °F 90% 29.84 in 10.0 mi North 8.1 mph - N/A   Overcast
1:04 PM 59.0 °F 55.4 °F 88% 29.88 in 10.0 mi North 6.9 mph - N/A   Overcast
1:56 PM 60.1 °F 55.9 °F 86% 29.84 in 10.0 mi North 6.9 mph - N/A   Overcast
2:56 PM 59.0 °F 55.0 °F 87% 29.84 in 10.0 mi NNW 8.1 mph - N/A   Overcast
3:17 PM 59.0 °F 55.4 °F 88% 29.88 in 10.0 mi NNW 9.2 mph - 0.00 in   Mostly Cloudy
3:56 PM 59.0 °F 55.0 °F 87% 29.85 in 10.0 mi East 4.6 mph - 0.00 in   Overcast
4:52 PM 57.2 °F 55.4 °F 94% 29.80 in 10.0 mi East 8.1 mph - 0.00 in   Mostly Cloudy
4:56 PM 57.9 °F 55.9 °F 93% 29.76 in 10.0 mi East 9.2 mph - 0.00 in   Overcast
5:38 PM 57.2 °F 55.4 °F 94% 29.80 in 10.0 mi SE 9.2 mph - N/A   Scattered Clouds
5:56 PM 57.9 °F 55.0 °F 90% 29.81 in 10.0 mi NW 6.9 mph - N/A   Mostly Cloudy
6:56 PM 57.9 °F 55.0 °F 90% 29.85 in 10.0 mi NNW 6.9 mph - N/A   Overcast
7:56 PM 57.9 °F 55.0 °F 90% 29.87 in 10.0 mi North 8.1 mph - N/A   Overcast
8:56 PM 57.9 °F 54.0 °F 87% 29.89 in 10.0 mi North 3.5 mph - N/A   Overcast
9:56 PM 57.0 °F 55.0 °F 93% 29.91 in 10.0 mi Calm Calm - N/A   Overcast
10:13 PM 57.2 °F 55.4 °F 94% 29.94 in 10.0 mi NNE 3.5 mph - N/A   Overcast
10:28 PM 57.2 °F 53.6 °F 88% 29.95 in 10.0 mi North 3.5 mph - N/A   Overcast
10:56 PM 57.9 °F 54.0 °F 87% 29.91 in 10.0 mi North 6.9 mph - N/A   Overcast
11:48 PM 57.2 °F 53.6 °F 88% 29.95 in 10.0 mi North 8.1 mph - N/A   Overcast
11:56 PM 57.0 °F 53.1 °F 87% 29.92 in 10.0 mi North 8.1 mph - N/A   Overcast